Regional Weather Roundup
Issued by NWS

Current Version | Previous Version | Text Only | Print | Product List | Glossary On
Versions: 1 2 3 4 5 6 7 8 9 10 11 12 13 14 15 16 17 18 19 20 21 22 23 24 25 26 27 28 29 30 31 32 33 34 35 36 37 38 39 40 41 42 43 44 45 46 47 48 49 50
174
ASHW40 PHFO 052132
RWRHI

WEATHER ROUNDUP FOR HAWAII
NATIONAL WEATHER SERVICE HONOLULU HI
1100 AM HST MON DEC 05 2016

THIS IS AN AUTOMATED REPORT THAT HAS NOT BEEN QUALITY CONTROLLED.

NOTE..."FAIR" INDICATES FEW OR NO CLOUDS BELOW 12,000 FEET WITH NO
SIGNIFICANT WEATHER AND/OR OBSTRUCTIONS TO VISIBILITY.

* - THESE SITES REPORT LIMITED FIELDS

HIZ001>004-052200-
KAUAI-NIIHAU-

CITY           SKY/WX    TMP DP  RH WIND       PRES   REMARKS
LIHUE APT      NOT AVBL
PORT ALLEN*      N/A     79 N/A N/A SW7         N/A
POIPU*           N/A     77 N/A N/A E3          N/A
PRINCEVILLE*     N/A     77 N/A N/A N3          N/A
KOKOLE POINT*  NOT AVBL
MOLOAA DAIRY*    N/A     82  70  65 NW3G10      N/A
WAIMEA HTS*    NOT AVBL
PUU OPAE*      NOT AVBL
PUU LUA*       NOT AVBL
MAKAHA RIDGE*    N/A     73  66  78 N2          N/A
$$

HIZ005>011-052200-
OAHU-

CITY           SKY/WX    TMP DP  RH WIND       PRES   REMARKS
HONOLULU       NOT AVBL
KALAELOA       NOT AVBL
KANEOHE MCB    NOT AVBL
WHEELER FIELD  MOSUNNY   77  68  73 CALM      29.96
BELLOWS*         N/A    N/A N/A N/A NE3         N/A
KAHUKU*          N/A    N/A N/A N/A NE2         N/A
WHEELER*       NOT AVBL
WAIANAE HARBOR NOT AVBL
DILLINGHAM*      N/A     79  68  69 MISG        N/A
KAHUKU TRN*      N/A     66  55  68 SW2         N/A
KAWAILOA*        N/A     75  63  64 NW1         N/A
KII*             N/A     79  68  69 E6          N/A
MAKUA RANGE*     N/A     75  70  83 SE5G13      N/A
OAHU FOREST NW NOT AVBL
SCHOFIELD BRK*   N/A     75  64  69 CALM        N/A
SCHOFIELD S*   NOT AVBL
WAIANAE VLY*   NOT AVBL
KUAOKALA*      NOT AVBL
HONOULIUULI*   NOT AVBL
MOKUOLOE IS*   NOT AVBL
PALEHUA*       NOT AVBL
WAIAWA PHB*    NOT AVBL
$$

HIZ012>013-052200-
MOLOKAI-

CITY           SKY/WX    TMP DP  RH WIND       PRES   REMARKS
MOLOKAI AIRPT  NOT AVBL
KALAUPAPA      NOT AVBL
MAKAPULAPAI*     N/A     81  70  69 E5G12       N/A
MOLOKAI 1*     NOT AVBL
PUU ALII*        N/A     64  62  94 CALM        N/A
$$

HIZ016-052200-
KAHOOLAWE-

CITY           SKY/WX    TMP DP  RH WIND       PRES   REMARKS
KAHOOLAWE*       N/A     70 N/A N/A E1          N/A
HAKIOAWA*        N/A     73  70  91 MISG      30.35F
HONOKANAIA*      N/A     73  68  84 NE7G13    29.89R
KANELOA*         N/A     70  68  94 NE6       30.02S
KEALIALALO*    NOT AVBL
LUA MAKIKA*    NOT AVBL
$$

HIZ014>015-052200-
LANAI-

CITY           SKY/WX    TMP DP  RH WIND       PRES   REMARKS
LANAI CITY       N/A     70  67  90 CALM      30.00S
LANAI 1*       NOT AVBL
$$

HIZ017>028-052200-
MAUI-

CITY           SKY/WX    TMP DP  RH WIND       PRES   REMARKS
KAHULUI        NOT AVBL
KAPALUA-W MAUI NOT AVBL
HANA AIRPORT   CLOUDY    75  70  83 SE1       29.96F
HANA*            N/A     73 N/A N/A SE3         N/A
HALEAKALA SUMM   N/A     45  45 100 SW14G33     N/A
MAALAEA BAY*     N/A     77 N/A N/A W3          N/A
HALEAKALA*     NOT AVBL
KAUPO GAP*     NOT AVBL
KULA 1*          N/A     57  54  89 SE10G16     N/A
$$

HIZ023>026-052200-
BIG ISLAND OF HAWAII COAST AND LOWER SLOPES-

CITY           SKY/WX    TMP DP  RH WIND       PRES   REMARKS
KAILUA KONA    CLOUDY    83  68  60 NE8       29.86F
HILO           NOT AVBL
HONOKAA*         N/A     68 N/A N/A VRB1        N/A
KAWAIHAE MWT*    N/A     77 N/A N/A NW7G14      N/A
KAWAIHAE*      NOT AVBL
SOUTH POINT*     N/A     75 N/A N/A N10         N/A
UPOLU AIRPORT* NOT AVBL
KAMUELA*       MOCLDY    73  64  73 NE7       30.02F
HAKALAU*         N/A     57  56  96 E2G9        N/A
KALOKO-HONOKO*   N/A     88  68  51 NW6G22    29.86S HX  91
PALI 2*          N/A     66  66 100 W7G14       N/A
KEALAKOMO*       N/A     79  72  78 NE8G14      N/A
KAUPULEHU*     NOT AVBL
KAPAPALA*      NOT AVBL
LOWER KAHUKU*    N/A     70  68  94 S2          N/A
PUHE CS*         N/A     77  66  69 NW3G12      N/A
PUHO CS*         N/A     80  67  65 SW3G10      N/A
PTA KEAMUKU*     N/A     68  63  83 CALM        N/A
WAIKOLOA*      NOT AVBL
$$

HIZ027>028-052200-
BIG ISLAND OF HAWAII INTERIOR AND SUMMMITS-

CITY           SKY/WX    TMP DP  RH WIND       PRES   REMARKS
BRADSHAW FIELD LGT RAIN  59  57  94 CALM      30.27S
MK VISITOR CEN   N/A     50  46  87 NW16        N/A
MAUNA KEA*       N/A     36  34  93 SW47G60     N/A  WCI  20
MAUNA LOA*       N/A     50  41  71 MISG        N/A
MAUNA LOA 1*   NOT AVBL
PTA KIPUKA*      N/A     61  57  88 SW1         N/A
PTA RANGE 17*    N/A     59  57  94 SW5         N/A
PTA WEST*        N/A     63  59  88 W3          N/A
NENE CABIN*      N/A     63  50  63 W7G17       N/A
AHUMOA*        NOT AVBL
PTA PORTABLE*  NOT AVBL
PUU MALI*        N/A     55  55 100 W7          N/A
$$

HIC003-052200-
NORTHWEST ISLANDS-

CITY           SKY/WX    TMP DP  RH WIND       PRES   REMARKS
MIDWAY ISLAND  RAIN      66  61  82 NE16G23   30.06S
MIDWAY NOS*      N/A     66 N/A N/A MISG      30.04R
FRENCH FRIGATE NOT AVBL
$$

PHZ110>124-180-052200-
BUOY REPORTS

STATION/POSITION TIME  TEMP    WIND        PRES    WAVE   SWELL
                       AIR SEA DIR/SP/G            HT/PER HT/DIR
                 (UTC) (F)     (DEG/KT/KT) (MB)    (FT/S) (FT/D)
BUOY 51001       2110   73 77  310/  8/ 10 1014.0
BUOY 51101       2050   73 78  280/  6/  8 1014.8R  10/12  10/ 10
BUOY 51100       NOT AVBL
BUOY 51002       2110   76 78   10/  8/ 12 1013.1
BUOY 51003       2050   77 80  190/  6/  8 1013.4F   8/11   8/330
BUOY 51004       2050   75 79  120/ 12/ 16 1014.1F   8/10   8/ 70
BARBERS PT BUOY  NOT AVBL
WAIMEA BAY BUOY  NOT AVBL
KAILUA BAY BUOY  2104      79                N/A     6/10   3/ 10
LANAI BUOY       2115      79                N/A     3/12   2/270
BARBERS PT 2     2109      79                N/A     5/11   3/300
PAUWELA MAUI     2109      78                N/A     7/10   3/350
HILO             2112      77                N/A     6/10   3/ 80
KANEOHE BAY BUOY 2106      78                N/A     6/11   3/ 20
HANALEI KAUAI    2052      78                N/A     9/13   7
KAHULUI HARBOR   2100   74 76  330/ 10/ 12 1013.6
HONOLULU HARBOR  2100   75 78  220/  5/  6 1014.5
KILO NALU        NOT AVBL
HILO HARBOR      2100   70 75   10/ 11/ 13 1013.7
MOKUOLOE         2036           30/  3/  3   N/A
NAWILIWILI       2100   76 78   90/  3/  5 1014.2
WHOTS BUOY       NOT AVBL
BUOY 51028       NOT AVBL
$$

......................KEY........................................
  SKY/WX - SKY CONDITIONS/PRESENT WEATHER
  TMP    - TEMPERATURE IN FAHRENHEIT
  DWPT   - DEWPOINT IN FAHRENHEIT
  RH     - RELATIVE HUMIDITY IN PERCENT
  WIND   - DIRECTION AND SPEED /MPH FOR ISLANDS...KTS FOR BUOYS/
  PRES   - MEAN SEA LEVEL PRESSURE IN INCHES OF HG
  VSB    - VISIBILITY IN MILES
  HX     - HEAT INDEX
  WCI    - WIND CHILL INDEX
  VRB    - VARIABLE WIND DIRECTION
  N/A    - NOT AVAILABLE




USA.gov is the U.S. government's official web portal to all federal, state and local government web resources and services.